BV1EV-2 Weather Reports


Display with metric or nautical units.
time (UTC)temp
F
wind
direction
speed
MPH
gust
MPH
rain 1hr
in
rain 24hr
in
rain mn
in
humidity
%
barometer
mb
20260504081748 87 0.0 0.0 0.00 0.00 0.00 44 1015.3
20260504045747 82 0.0 0.0 0.00 0.00 0.00 51 1015.9
20260504043747 83 0.0 0.0 0.00 0.00 0.00 50 1016.0
20260504041747 82 0.0 0.0 0.00 0.00 0.00 49 1016.3
20260504035747 81 0.0 0.0 0.00 0.00 0.00 50 1016.3
20260504033747 81 0.0 0.0 0.00 0.00 0.00 51 1016.5
20260504031747 81 0.0 0.0 0.00 0.00 0.00 52 1016.9
20260504025747 80 0.0 0.0 0.00 0.00 0.00 53 1016.9
20260504023747 82 0.0 0.0 0.00 0.00 0.00 42 1017.0
20260504021747 83 0.0 0.0 0.00 0.00 0.00 38 1017.4
20260504015747 83 0.0 0.0 0.00 0.00 0.00 38 1017.7
20260504013747 81 0.0 0.0 0.00 0.00 0.00 46 1017.9
20260504011747 85 0.0 0.0 0.00 0.00 0.00 39 1017.8
20260504005747 82 0.0 0.0 0.00 0.00 0.00 50 1017.5
20260504003746 85 0.0 0.0 0.00 0.00 0.00 38 1017.2
20260504001747 86 0.0 0.0 0.00 0.00 0.00 42 1017.4
20260503235747 83 0.0 0.0 0.00 0.00 0.00 60 1017.4
20260503233748 83 0.0 0.0 0.00 0.00 0.00 60 1017.6
20260503231748 83 0.0 0.0 0.00 0.00 0.00 59 1017.6
20260503225748 84 0.0 0.0 0.00 0.00 0.00 59 1017.3
20260503223750 83 0.0 0.0 0.00 0.00 0.00 59 1016.8
20260503221748 83 0.0 0.0 0.00 0.00 0.00 59 1016.3
20260503215748 83 0.0 0.0 0.00 0.00 0.00 58 1015.9
20260503213747 83 0.0 0.0 0.00 0.00 0.00 58 1015.5
20260503211748 83 0.0 0.0 0.00 0.00 0.00 57 1015.1
20260503205748 83 0.0 0.0 0.00 0.00 0.00 56 1014.6
20260503203747 83 0.0 0.0 0.00 0.00 0.00 56 1014.4
20260503201747 83 0.0 0.0 0.00 0.00 0.00 56 1014.3
20260503195747 82 0.0 0.0 0.00 0.00 0.00 55 1014.1
20260503193747 82 0.0 0.0 0.00 0.00 0.00 54 1013.8
20260503191748 81 0.0 0.0 0.00 0.00 0.00 53 1013.7
20260503185748 81 0.0 0.0 0.00 0.00 0.00 52 1013.6
20260503183748 81 0.0 0.0 0.00 0.00 0.00 49 1013.4
20260503181747 82 0.0 0.0 0.00 0.00 0.00 44 1013.4
20260503175747 83 0.0 0.0 0.00 0.00 0.00 40 1013.3
20260503173747 84 0.0 0.0 0.00 0.00 0.00 40 1013.4
20260503171747 83 0.0 0.0 0.00 0.00 0.00 44 1013.1